DELTA 1 DEB, 10715

Orbit data source: Space-Track

DELTA 1 DEB, 10715 is space debris in LEO originally from a launch on Thu, 29 Jul 1976 UTC launched from the Air Force Western Test Range (AFWTR). Debris objects in space refer to the collection of defunct objects orbiting the Earth. Examples of debris include non-operational satellites, rocket bodies, and fragments generated from explosions, collisions, or faulty payload assembly.

Loading next visibility...
Identifier
10715, 1976-077AL
Orbit
LEO
Last TLE update
11 hours ago
Origin
Manufacturer
Unknown
Mission
Spacecraft
Bus & Motor
Unknown
Mass
Unknown
Launch date (UTC)
1976-07-29 (49 years ago)
Launch vehicle
Unknown
Launch site
Air Force Western Test Range (AFWTR)
Object type
Payload
Rocket body
Debris
Shape & HBR
Unknown
Radar Cross Section
Medium (>0.1 m² and <1 m²)

Expand to show TLE details & history

TLE from 11 hours ago
0 DELTA 1 DEB
1 10715U 76077AL  25128.93319493  .00000026  00000-0  94932-3 0  9998
2 10715 102.4911 289.5716 0435024 146.3448 340.5525 11.63926694 75441
Epoch: 2025-05-08T22:23Z
Definitive object data (Epoch: 2025-05-08T22:23:48.041Z)
Latitude
53.06417°
Longitude
-76.32441°
Altitude
1,519.315 km
Speed
7.254 km/s
True Right ascension
08h 26m 29s
True Declination
52° 54' 53"
Sunlit
Object was in daylight at TLE epoch
Visualization TLE readout
Latitude
-73.96705°
Longitude
137.15876°
Altitude
2,116.801 km
Speed
6.749 km/s
Apparent Right ascension
03h 51m 31s
Apparent Declination
-68° 26' 50"
Sunlit
Object is in daylight
Visualization observer readout
Local Sidereal Time
17:43:27
Azimuth
161.162° S
Elevation
-57.738°
Doppler factor
1
Orbital elements
Apogee altitude
2,201.915 km
Perigee altitude
1,486.53 km
Semi-major axis
8,222.36 km
Eccentricity
0.0435024
Inclination
102.4911°
RAAN
289.5716°
Arg. of periapsis
146.3448°
True anomaly
338.80355°
Mean anomaly
340.5525°
Eccentric anomaly
339.68724°
Mean motion
2.91104 °/min
BSTAR
0.00094932
Orbital period
123.67 mins
Loading maneuver chart data...
Loading SW <> Apogee altitude chart data...
Loading historical data...
Loading historical data...
Loading historical data...
Loading historical data...
Loading historical data...
Loading historical data...
Loading historical data...

DELTA 1 DEB Visibility forecast

Observer location: undefined°, undefined°

Span
Click to sort rows by Start time (UTC) header in descending order
Start Az.
Max El. time (UTC)
Max El. Az.
Max El.
End time (UTC)
End Az.
20 mins2025-05-09 10:08:06.527Z154.27° SSE2025-05-09 10:19:06.527Z39.112° NE44.695°2025-05-09 10:28:06.527Z343.605° N
14 mins2025-05-09 12:14:06.527Z223.322° SW2025-05-09 12:20:06.527Z261.79° W22.334°2025-05-09 12:28:06.527Z315.039° NNW
14 mins2025-05-09 23:07:06.527Z29.867° NE2025-05-09 23:14:06.527Z107.255° ESE39.297°2025-05-09 23:21:06.527Z177.864° S
12 mins2025-05-10 01:09:06.527Z355.916° N2025-05-10 01:15:06.527Z299.96° NW28.197°2025-05-10 01:21:06.527Z248.033° W
16 mins2025-05-10 08:54:06.527Z115.342° SE2025-05-10 09:02:06.527Z61.043° ENE30.879°2025-05-10 09:10:06.527Z358.65° N
|